星链-30395 (STARLINK-30395 )

导读 | 星芒AI

STARLINK-30395 是 SpaceX Starlink 项目中的一颗低轨通信卫星,属于第三代星链卫星(v1.5)。该卫星于2023年发射,旨在为全球用户提供高速互联网服务。它运行在约550公里高的近地轨道,具备先进的通信设备和激光链路技术,以提升网络稳定性和数据传输效率。作为 Starlink 卫星群的一部分,STARLINK-30395 支持全球范围内的宽带接入,尤其在偏远地区发挥重要作用。其设计注重可持续性,具备自动避撞功能,以减少太空碎片风险。

基本信息
目录编号:
57812
目录名称:
STARLINK-30395
国际标识:
2023-138E
轨道中心:
EARTH
卫星名称:
星链-30395
卫星全名:
星链-30395 (STARLINK-30395 )
卫星状态:
在轨 (已飞行832 天)
发射日期:
2023-09-09 UTC
国别 :
美国 (US)
星等 :
--
轨道信息
数据来源 国际轨道数据
星历时间: 2025-12-19T02:53:33+0800
11小时前
查看轨道信息
半长轴: 6937.212km
偏心率: 0.0001166
轨道倾角: 43.004°
近地点辐角 282.604°
升交点赤经 315.894°
平近点角 77.467°
近地点: 558.268km
远地点: 559.886km
周期: 95.838分钟
每日圈数: 15.025376
详细信息
固有亮度:
5
最大亮度:
0.3
卫星平台:
Starlink v2.0 mini
覆盖范围:
全球
运营商:
太空探索技术公司
运营商所在国:
美国
制造商(研发单位):
太空探索技术公司
制造商所在国:
美国
使用方式:
暂无
卫星简介
星链(Starlink)计划是由太空探索技术公司(SpaceX)提出的一个巨型低轨卫星互联网星座项目,计划在2019年至2024年间在太空搭建由约1.2万颗卫星组成的“星链”网络,其中1584颗将部署在地球上空550千米处的近地轨道,并从2020年开始工作。该卫星仍在工作。
2D轨道图
3D轨道图
轨道高度分析图
轨道倾角分析图
轨道综合分析图
查看轨道综合分析图